Regional Weather Roundup
Issued by NWS

Home | Current Version | Previous Version | Graphics & Text | Print | Product List | Glossary On
Versions: 1 2 3 4 5 6 7 8 9 10 11 12 13 14 15 16 17 18 19 20 21 22 23 24 25 26 27 28 29 30 31 32 33 34 35 36 37 38 39 40 41 42 43 44 45 46 47 48 49 50
000
ASUS43 KLMK 260302
RWRKY
KENTUCKY REGIONAL WEATHER ROUNDUP
NATIONAL WEATHER SERVICE LOUISVILLE KY
1100 PM EDT FRI JUL 25 2014

NOTE "FAIR" INDICATES FEW OR NO CLOUDS BELOW 12,000 FEET
WITH NO SIGNIFICANT WEATHER AND/OR OBSTRUCTIONS TO VISIBILITY.

KYZ001>023-026-027-061>063-070>075-260400-
WESTERN AND SOUTH CENTRAL KENTUCKY

CITY           SKY/WX    TMP DP  RH WIND       PRES   REMARKS
PADUCAH        MOCLDY    67  63  87 SE3       29.96R
HENDERSON      CLEAR     64  57  77 CALM      29.98R
OWENSBORO      PTCLDY    71  61  70 CALM      30.00R
HOPKINSVILLE   PTCLDY    74  63  69 SW3       30.00R
BOWLING GREEN  MOCLDY    74  61  63 CALM      30.01R
GLASGOW        MOCLDY    68  60  75 CALM      30.01R
$$

KYZ024-025-028>034-038-045-046-053-260400-
NORTH CENTRAL KENTUCKY

CITY           SKY/WX    TMP DP  RH WIND       PRES   REMARKS
LOUISVILLE/SDF MOCLDY    75  60  59 SE6       30.00R
LOUISVILLE/LOU MOCLDY    74  59  59 CALM      30.01R
FORT KNOX      CLEAR     66  61  82 CALM      30.00R
$$

KYZ035>037-039>044-047>052-055>060-089>105-260400-
NORTHEAST KENTUCKY

CITY           SKY/WX    TMP DP  RH WIND       PRES   REMARKS
LEXINGTON      PTCLDY    70  58  65 SE5       30.02R
COVINGTON      MOCLDY    67  58  72 CALM      30.01R
FRANKFORT      PTCLDY    71  60  68 S5        30.00R
$$

KYZ054-064>069-076>088-106>120-260400-
SOUTHEAST KENTUCKY

CITY           SKY/WX    TMP DP  RH WIND       PRES   REMARKS
JACKSON        CLOUDY    67  57  70 S3        30.04F
LONDON         MOCLDY    69  61  75 CALM      30.05R
SOMERSET       PTCLDY    64  63  94 CALM      30.05R
MIDDLESBORO    PTCLDY    67  64  90 CALM      30.06R
MONTICELLO     PTCLDY    63  62  96 CALM      30.06R
$$




USA.gov is the U.S. government's official web portal to all federal, state and local government web resources and services.